Location: Berg
(47.2344°N, 9.5296°E)
Time: 14:25:01
(UTC+00:00)

Cosmos 44 - Pass Details

Date: 09 May 2021
Orbit: 571 x 791 km, 65.1° (Epoch: 11 June)

Event Time Altitude Azimuth Distance (km) Brightness Sun altitude
Rises 20:28:00 0° 324° (NW) 3,295 8.7 -14.8°
Reaches altitude 10° 20:30:59 10° 340° (NNW) 2,365 7.2 -15.1°
Maximum altitude 20:35:12 22° 30° (NNE) 1,667 5.5 -15.6°
Drops below altitude 10° 20:39:20 10° 81° (E) 2,323 5.7 -16.0°
Enters shadow 20:39:58 - 85° (E) 2,507 5.8 -16.1°
